| time (UTC) | temp F | wind direction | speed MPH | gust MPH | rain 1hr in | rain 24hr in | rain mn in | humidity % | barometer mb |
| 20260508085215 | 49 | 225 | 1.0 | 3.0 | 0.00 | 0.00 | 0.00 | 86 | 1016.4 |
| 20260508084215 | 50 | 0.0 | 0.0 | 0.00 | 0.00 | 0.00 | 86 | 1016.4 | |
| 20260508083215 | 50 | 0.0 | 0.0 | 0.00 | 0.00 | 0.00 | 86 | 1016.3 | |
| 20260508082215 | 50 | 248 | 2.0 | 3.0 | 0.00 | 0.00 | 0.00 | 86 | 1016.3 |
| 20260508081215 | 50 | 0.0 | 0.0 | 0.00 | 0.00 | 0.00 | 86 | 1016.2 | |
| 20260508080235 | 50 | 0.0 | 0.0 | 0.00 | 0.00 | 0.00 | 86 | 1016.3 | |
| 20260508075215 | 50 | 0.0 | 0.0 | 0.00 | 0.00 | 0.00 | 85 | 1016.1 | |
| 20260508074215 | 50 | 0.0 | 0.0 | 0.00 | 0.00 | 0.00 | 84 | 1016.0 | |
| 20260508073215 | 50 | 0.0 | 0.0 | 0.00 | 0.00 | 0.00 | 84 | 1016.0 | |
| 20260508072215 | 51 | 0.0 | 0.0 | 0.00 | 0.00 | 0.00 | 84 | 1016.0 | |
| 20260508071237 | 51 | 0.0 | 0.0 | 0.00 | 0.00 | 0.00 | 84 | 1015.9 | |
| 20260508070217 | 51 | 0.0 | 0.0 | 0.00 | 0.00 | 0.00 | 84 | 1016.1 | |
| 20260508065216 | 51 | 0.0 | 2.0 | 0.00 | 0.00 | 0.00 | 83 | 1016.2 | |
| 20260508064236 | 51 | 0.0 | 0.0 | 0.00 | 0.00 | 0.00 | 83 | 1016.1 | |
| 20260508063216 | 52 | 0.0 | 0.0 | 0.00 | 0.00 | 0.00 | 83 | 1016.0 | |
| 20260508062216 | 52 | 0.0 | 0.0 | 0.00 | 0.00 | 0.00 | 81 | 1015.9 | |
| 20260508061216 | 53 | 0.0 | 0.0 | 0.00 | 0.00 | 0.00 | 81 | 1016.0 | |
| 20260508060216 | 53 | 0.0 | 0.0 | 0.00 | 0.00 | 0.00 | 81 | 1016.1 | |
| 20260508055216 | 53 | 0.0 | 0.0 | 0.00 | 0.00 | 0.00 | 80 | 1016.1 | |
| 20260508054216 | 54 | 0.0 | 0.0 | 0.00 | 0.00 | 0.00 | 79 | 1016.0 | |
| 20260508053216 | 55 | 0.0 | 0.0 | 0.00 | 0.00 | 0.00 | 77 | 1016.2 | |
| 20260508052216 | 55 | 0.0 | 0.0 | 0.00 | 0.00 | 0.00 | 77 | 1016.2 | |
| 20260508051216 | 55 | 0.0 | 0.0 | 0.00 | 0.00 | 0.00 | 77 | 1016.1 | |
| 20260508050236 | 55 | 0.0 | 0.0 | 0.00 | 0.00 | 0.00 | 77 | 1016.1 | |
| 20260508045236 | 55 | 0.0 | 0.0 | 0.00 | 0.00 | 0.00 | 78 | 1016.1 | |
| 20260508044216 | 56 | 0.0 | 0.0 | 0.00 | 0.00 | 0.00 | 76 | 1016.0 | |
| 20260508043216 | 56 | 0.0 | 0.0 | 0.00 | 0.00 | 0.00 | 76 | 1016.0 | |
| 20260508042216 | 57 | 0.0 | 0.0 | 0.00 | 0.00 | 0.00 | 74 | 1016.0 | |
| 20260508041216 | 58 | 0.0 | 0.0 | 0.00 | 0.00 | 0.00 | 72 | 1016.0 | |
| 20260508040216 | 59 | 0.0 | 0.0 | 0.00 | 0.00 | 0.00 | 70 | 1016.0 | |
| 20260508035216 | 60 | 0.0 | 0.0 | 0.00 | 0.00 | 0.00 | 70 | 1015.9 | |
| 20260508034216 | 60 | 0.0 | 0.0 | 0.00 | 0.00 | 0.00 | 69 | 1015.8 | |
| 20260508033216 | 61 | 0.0 | 0.0 | 0.00 | 0.00 | 0.00 | 67 | 1015.7 | |
| 20260508032215 | 61 | 0.0 | 0.0 | 0.00 | 0.00 | 0.00 | 67 | 1015.7 | |
| 20260508031215 | 62 | 0.0 | 0.0 | 0.00 | 0.00 | 0.00 | 65 | 1015.7 | |
| 20260508030236 | 63 | 0.0 | 0.0 | 0.00 | 0.00 | 0.00 | 61 | 1015.5 | |
| 20260508025236 | 64 | 0.0 | 1.0 | 0.00 | 0.00 | 0.00 | 60 | 1015.5 | |
| 20260508024216 | 66 | 45 | 2.0 | 4.0 | 0.00 | 0.00 | 0.00 | 55 | 1015.6 |
| 20260508023216 | 66 | 45 | 2.0 | 4.0 | 0.00 | 0.00 | 0.00 | 54 | 1015.6 |
| 20260508022216 | 66 | 45 | 2.0 | 5.0 | 0.00 | 0.00 | 0.00 | 52 | 1015.6 |
| 20260508021216 | 66 | 0.0 | 0.0 | 0.00 | 0.00 | 0.00 | 48 | 1015.7 | |
| 20260508020216 | 67 | 0.0 | 0.0 | 0.00 | 0.00 | 0.00 | 46 | 1015.8 | |
| 20260508015216 | 68 | 0.0 | 0.0 | 0.00 | 0.00 | 0.00 | 44 | 1015.8 | |
| 20260508014216 | 68 | 23 | 1.0 | 2.0 | 0.00 | 0.00 | 0.00 | 44 | 1015.9 |
| 20260508013216 | 68 | 0.0 | 0.0 | 0.00 | 0.00 | 0.00 | 42 | 1016.0 | |
| 20260508012215 | 68 | 0.0 | 0.0 | 0.00 | 0.00 | 0.00 | 43 | 1016.0 | |
| 20260508011216 | 67 | 0.0 | 0.0 | 0.00 | 0.00 | 0.00 | 43 | 1016.1 | |
| 20260508010216 | 68 | 0 | 3.0 | 5.0 | 0.00 | 0.00 | 0.00 | 43 | 1016.3 |
| 20260508005216 | 68 | 23 | 1.0 | 3.0 | 0.00 | 0.00 | 0.00 | 44 | 1016.5 |
| 20260508004216 | 68 | 0 | 1.0 | 4.0 | 0.00 | 0.00 | 0.00 | 44 | 1016.5 |
| 20260508003216 | 69 | 0.0 | 0.0 | 0.00 | 0.00 | 0.00 | 44 | 1016.7 | |
| 20260508002215 | 69 | 248 | 2.0 | 3.0 | 0.00 | 0.00 | 0.00 | 44 | 1016.7 |
| 20260508001216 | 69 | 338 | 1.0 | 2.0 | 0.00 | 0.00 | 0.00 | 45 | 1016.8 |
| 20260508000236 | 68 | 293 | 2.0 | 4.0 | 0.00 | 0.00 | 0.00 | 47 | 1016.8 |
| 20260507235215 | 68 | 225 | 4.0 | 5.0 | 0.00 | 0.00 | 0.00 | 47 | 1017.0 |
| 20260507234216 | 69 | 270 | 2.0 | 3.0 | 0.00 | 0.00 | 0.00 | 46 | 1017.1 |
| 20260507233216 | 68 | 23 | 2.0 | 3.0 | 0.00 | 0.00 | 0.00 | 47 | 1017.2 |
| 20260507232215 | 68 | 293 | 1.0 | 2.0 | 0.00 | 0.00 | 0.00 | 47 | 1017.2 |
| 20260507231235 | 68 | 248 | 3.0 | 6.0 | 0.00 | 0.00 | 0.00 | 47 | 1017.4 |
| 20260507230216 | 68 | 225 | 1.0 | 2.0 | 0.00 | 0.00 | 0.00 | 48 | 1017.4 |
| 20260507225215 | 67 | 248 | 2.0 | 4.0 | 0.00 | 0.00 | 0.00 | 49 | 1017.5 |
| 20260507224216 | 67 | 203 | 4.0 | 6.0 | 0.00 | 0.00 | 0.00 | 50 | 1017.6 |
| 20260507223216 | 67 | 270 | 2.0 | 4.0 | 0.00 | 0.00 | 0.00 | 50 | 1017.8 |
| 20260507222216 | 67 | 225 | 1.0 | 4.0 | 0.00 | 0.00 | 0.00 | 50 | 1017.9 |
| 20260507221216 | 67 | 23 | 2.0 | 3.0 | 0.00 | 0.00 | 0.00 | 50 | 1018.0 |
| 20260507220216 | 66 | 225 | 2.0 | 3.0 | 0.00 | 0.00 | 0.00 | 51 | 1018.1 |
| 20260507215215 | 66 | 248 | 2.0 | 4.0 | 0.00 | 0.00 | 0.00 | 52 | 1018.2 |
| 20260507214236 | 64 | 0 | 1.0 | 3.0 | 0.00 | 0.00 | 0.00 | 54 | 1018.3 |
| 20260507213216 | 64 | 270 | 2.0 | 4.0 | 0.00 | 0.00 | 0.00 | 54 | 1018.3 |
| 20260507212215 | 64 | 23 | 2.0 | 4.0 | 0.00 | 0.00 | 0.00 | 55 | 1018.5 |
| 20260507211236 | 64 | 23 | 2.0 | 4.0 | 0.00 | 0.00 | 0.00 | 55 | 1018.5 |
| 20260507210216 | 64 | 0.0 | 1.0 | 0.00 | 0.00 | 0.00 | 54 | 1018.7 | |
| 20260507205215 | 63 | 225 | 2.0 | 3.0 | 0.00 | 0.00 | 0.00 | 56 | 1018.8 |
| 20260507204215 | 63 | 270 | 1.0 | 5.0 | 0.00 | 0.00 | 0.00 | 56 | 1018.9 |
| 20260507203216 | 63 | 293 | 1.0 | 2.0 | 0.00 | 0.00 | 0.00 | 57 | 1019.1 |
| 20260507202216 | 62 | 293 | 1.0 | 4.0 | 0.00 | 0.00 | 0.00 | 58 | 1019.1 |
| 20260507201216 | 62 | 315 | 3.0 | 4.0 | 0.00 | 0.00 | 0.00 | 58 | 1019.3 |
| 20260507200216 | 61 | 0.0 | 3.0 | 0.00 | 0.00 | 0.00 | 59 | 1019.3 | |
| 20260507195215 | 62 | 180 | 1.0 | 2.0 | 0.00 | 0.00 | 0.00 | 58 | 1019.5 |
| 20260507194216 | 60 | 338 | 1.0 | 3.0 | 0.00 | 0.00 | 0.00 | 61 | 1019.6 |
| 20260507193216 | 59 | 315 | 2.0 | 5.0 | 0.00 | 0.00 | 0.00 | 64 | 1019.6 |
| 20260507192236 | 57 | 0 | 1.0 | 2.0 | 0.00 | 0.00 | 0.00 | 66 | 1019.6 |
| 20260507191216 | 57 | 0.0 | 0.0 | 0.00 | 0.00 | 0.00 | 66 | 1019.7 | |
| 20260507190216 | 57 | 248 | 1.0 | 2.0 | 0.00 | 0.00 | 0.00 | 66 | 1019.7 |
| 20260507185236 | 57 | 248 | 2.0 | 4.0 | 0.00 | 0.00 | 0.00 | 66 | 1019.9 |
| 20260507184216 | 57 | 158 | 2.0 | 5.0 | 0.00 | 0.00 | 0.00 | 66 | 1019.9 |
| 20260507183216 | 57 | 45 | 2.0 | 3.0 | 0.00 | 0.00 | 0.00 | 65 | 1020.0 |
| 20260507182215 | 57 | 0.0 | 0.0 | 0.00 | 0.00 | 0.00 | 66 | 1020.0 | |
| 20260507181235 | 56 | 203 | 1.0 | 3.0 | 0.00 | 0.00 | 0.00 | 67 | 1020.0 |
| 20260507180216 | 56 | 68 | 2.0 | 4.0 | 0.00 | 0.00 | 0.00 | 69 | 1020.0 |
| 20260507175216 | 55 | 23 | 1.0 | 2.0 | 0.00 | 0.00 | 0.00 | 68 | 1020.2 |
| 20260507174216 | 55 | 0.0 | 0.0 | 0.00 | 0.00 | 0.00 | 69 | 1020.2 | |
| 20260507173216 | 56 | 135 | 2.0 | 6.0 | 0.00 | 0.00 | 0.00 | 70 | 1020.2 |
| 20260507172216 | 54 | 225 | 1.0 | 4.0 | 0.00 | 0.00 | 0.00 | 72 | 1020.2 |
| 20260507171216 | 54 | 225 | 4.0 | 8.0 | 0.00 | 0.00 | 0.00 | 73 | 1020.2 |
| 20260507170216 | 53 | 0.0 | 2.0 | 0.00 | 0.00 | 0.00 | 73 | 1020.2 | |
| 20260507165216 | 53 | 248 | 1.0 | 3.0 | 0.00 | 0.00 | 0.00 | 74 | 1020.2 |
| 20260507164216 | 53 | 225 | 3.0 | 5.0 | 0.00 | 0.00 | 0.00 | 74 | 1020.3 |
| 20260507163216 | 53 | 0.0 | 0.0 | 0.00 | 0.00 | 0.00 | 74 | 1020.2 | |
| 20260507162215 | 52 | 158 | 2.0 | 4.0 | 0.00 | 0.00 | 0.00 | 75 | 1020.2 |
| 20260507161215 | 52 | 180 | 2.0 | 4.0 | 0.00 | 0.00 | 0.00 | 76 | 1020.3 |
| 20260507160216 | 52 | 248 | 2.0 | 4.0 | 0.00 | 0.00 | 0.00 | 77 | 1020.3 |
| 20260507155215 | 51 | 248 | 2.0 | 3.0 | 0.00 | 0.00 | 0.00 | 77 | 1020.4 |
| 20260507154215 | 51 | 225 | 2.0 | 4.0 | 0.00 | 0.00 | 0.00 | 78 | 1020.5 |
| 20260507153236 | 51 | 0.0 | 0.0 | 0.00 | 0.00 | 0.00 | 78 | 1020.3 | |
| 20260507152235 | 50 | 203 | 3.0 | 4.0 | 0.00 | 0.00 | 0.00 | 79 | 1020.4 |
| 20260507151235 | 50 | 248 | 3.0 | 5.0 | 0.00 | 0.00 | 0.00 | 79 | 1020.4 |
| 20260507150216 | 50 | 203 | 3.0 | 6.0 | 0.00 | 0.00 | 0.00 | 80 | 1020.4 |
| 20260507145215 | 50 | 270 | 1.0 | 2.0 | 0.00 | 0.00 | 0.00 | 80 | 1020.4 |
| 20260507144236 | 50 | 248 | 1.0 | 4.0 | 0.00 | 0.00 | 0.00 | 81 | 1020.4 |
| 20260507143216 | 50 | 225 | 2.0 | 4.0 | 0.00 | 0.00 | 0.00 | 81 | 1020.3 |
| 20260507142235 | 50 | 225 | 3.0 | 5.0 | 0.00 | 0.00 | 0.00 | 82 | 1020.3 |
| 20260507141215 | 50 | 225 | 2.0 | 4.0 | 0.00 | 0.00 | 0.00 | 82 | 1020.2 |
| 20260507140215 | 49 | 180 | 2.0 | 4.0 | 0.00 | 0.00 | 0.00 | 82 | 1020.2 |
| 20260507135215 | 49 | 225 | 1.0 | 3.0 | 0.00 | 0.00 | 0.00 | 82 | 1020.2 |
| 20260507134215 | 49 | 0.0 | 2.0 | 0.00 | 0.00 | 0.00 | 83 | 1020.0 | |
| 20260507133256 | 49 | 0.0 | 0.0 | 0.00 | 0.00 | 0.00 | 83 | 1020.0 | |
| 20260507132216 | 49 | 0.0 | 0.0 | 0.00 | 0.00 | 0.00 | 83 | 1020.1 | |
| 20260507131216 | 49 | 0.0 | 0.0 | 0.00 | 0.00 | 0.00 | 83 | 1020.2 | |
| 20260507130215 | 49 | 0.0 | 0.0 | 0.00 | 0.00 | 0.00 | 83 | 1020.1 | |
| 20260507125235 | 49 | 0.0 | 3.0 | 0.00 | 0.00 | 0.00 | 83 | 1020.2 | |
| 20260507124256 | 50 | 0.0 | 0.0 | 0.00 | 0.00 | 0.00 | 82 | 1020.1 | |
| 20260507123216 | 50 | 225 | 1.0 | 3.0 | 0.00 | 0.00 | 0.00 | 82 | 1020.2 |
| 20260507122215 | 50 | 0.0 | 1.0 | 0.00 | 0.00 | 0.00 | 83 | 1020.3 | |
| 20260507121236 | 50 | 0.0 | 0.0 | 0.00 | 0.00 | 0.00 | 82 | 1020.2 | |
| 20260507120215 | 50 | 225 | 2.0 | 3.0 | 0.00 | 0.00 | 0.00 | 81 | 1020.4 |
| 20260507115216 | 50 | 0.0 | 0.0 | 0.00 | 0.00 | 0.00 | 81 | 1020.4 | |
| 20260507114216 | 50 | 0.0 | 2.0 | 0.00 | 0.00 | 0.00 | 81 | 1020.5 | |
| 20260507113215 | 50 | 180 | 2.0 | 3.0 | 0.00 | 0.00 | 0.00 | 81 | 1020.4 |
| 20260507112215 | 50 | 180 | 2.0 | 4.0 | 0.00 | 0.00 | 0.00 | 81 | 1020.6 |
| 20260507111215 | 50 | 225 | 1.0 | 3.0 | 0.00 | 0.00 | 0.00 | 81 | 1020.6 |
| 20260507110216 | 50 | 248 | 1.0 | 2.0 | 0.00 | 0.00 | 0.00 | 81 | 1020.7 |
| 20260507105215 | 50 | 225 | 3.0 | 5.0 | 0.00 | 0.00 | 0.00 | 81 | 1020.7 |
| 20260507104215 | 50 | 225 | 2.0 | 4.0 | 0.00 | 0.00 | 0.00 | 81 | 1020.7 |
| 20260507103235 | 50 | 225 | 2.0 | 3.0 | 0.00 | 0.00 | 0.00 | 80 | 1020.7 |
| 20260507102215 | 50 | 248 | 2.0 | 4.0 | 0.00 | 0.00 | 0.00 | 81 | 1020.6 |
| 20260507101215 | 51 | 225 | 1.0 | 2.0 | 0.00 | 0.00 | 0.00 | 81 | 1020.6 |
| 20260507100255 | 51 | 203 | 3.0 | 4.0 | 0.00 | 0.00 | 0.00 | 81 | 1020.6 |
| 20260507095215 | 51 | 203 | 3.0 | 6.0 | 0.00 | 0.00 | 0.00 | 81 | 1020.7 |
| 20260507094216 | 51 | 225 | 4.0 | 6.0 | 0.00 | 0.00 | 0.00 | 81 | 1020.8 |
| 20260507093216 | 51 | 225 | 2.0 | 5.0 | 0.00 | 0.00 | 0.00 | 81 | 1020.8 |
| 20260507092215 | 51 | 0.0 | 3.0 | 0.00 | 0.00 | 0.00 | 81 | 1020.8 | |
| 20260507091216 | 51 | 225 | 2.0 | 3.0 | 0.00 | 0.00 | 0.00 | 81 | 1020.8 |
| 20260507090215 | 51 | 248 | 3.0 | 4.0 | 0.00 | 0.00 | 0.00 | 80 | 1020.9 |